DW8187 Weather Reports


time (UTC)temp
C
wind
direction
speed
KPH
gust
KPH
rain 1hr
cm
rain 24hr
cm
rain mn
cm
humidity
%
barometer
mb
20260504210224 29 277 1.6 3.2 0.00 0.05 0.00 60 1017.9
20260504210004 29 277 1.6 3.2 0.00 0.05 0.00 60 1017.9
20260504205903 29 276 1.6 3.2 0.00 0.05 0.00 60 1017.9
20260504205803 29 275 1.6 3.2 0.00 0.05 0.00 60 1017.8
20260504205703 29 274 0.0 3.2 0.00 0.05 0.00 60 1017.8
20260504205603 29 269 0.0 3.2 0.00 0.05 0.00 60 1017.9
20260504205503 29 256 0.0 3.2 0.00 0.05 0.00 60 1017.8
20260504205403 29 239 0.0 1.6 0.00 0.05 0.00 60 1017.7
20260504205304 29 240 0.0 1.6 0.00 0.05 0.00 60 1017.7
20260504205203 29 237 0.0 1.6 0.00 0.05 0.00 60 1017.8
20260504205104 29 233 1.6 3.2 0.00 0.05 0.00 60 1017.9
20260504205024 29 234 1.6 3.2 0.00 0.05 0.00 60 1017.9
20260504204904 29 233 1.6 3.2 0.00 0.05 0.00 60 1018.0
20260504204803 29 234 1.6 3.2 0.00 0.05 0.00 60 1017.9
20260504204704 29 234 1.6 3.2 0.00 0.05 0.00 60 1017.9
20260504204603 29 231 1.6 3.2 0.00 0.05 0.00 60 1018.0
20260504204524 29 230 1.6 3.2 0.00 0.05 0.00 60 1017.9
20260504204403 29 226 1.6 3.2 0.00 0.05 0.00 60 1017.9
20260504204303 29 224 1.6 3.2 0.00 0.05 0.00 60 1018.0
20260504204203 29 221 1.6 3.2 0.00 0.05 0.00 60 1017.8
20260504204103 29 221 1.6 3.2 0.00 0.05 0.00 60 1017.9
20260504204003 29 219 3.2 4.8 0.00 0.05 0.00 60 1017.9
20260504203903 29 211 3.2 4.8 0.00 0.05 0.00 60 1018.1
20260504203803 29 202 3.2 4.8 0.00 0.05 0.00 60 1018.0
20260504203703 29 196 3.2 4.8 0.00 0.05 0.00 60 1018.1
20260504203603 29 193 3.2 4.8 0.00 0.05 0.00 60 1018.3
20260504203524 29 191 3.2 4.8 0.00 0.05 0.00 60 1018.0
20260504203403 29 182 3.2 4.8 0.00 0.05 0.00 60 1018.3
20260504203303 29 174 3.2 4.8 0.00 0.05 0.00 60 1018.0
20260504203203 29 161 3.2 4.8 0.00 0.05 0.00 60 1018.1
20260504203105 29 157 3.2 4.8 0.00 0.05 0.00 60 1018.1
20260504203003 29 148 3.2 4.8 0.00 0.05 0.00 60 1018.3
20260504202904 29 144 1.6 4.8 0.00 0.05 0.00 60 1018.1
20260504202803 29 138 1.6 4.8 0.00 0.05 0.00 60 1018.1
20260504202724 29 135 1.6 4.8 0.00 0.05 0.00 60 1018.0
20260504202603 29 130 1.6 4.8 0.00 0.05 0.00 60 1018.1
20260504202503 29 124 1.6 4.8 0.00 0.05 0.00 60 1018.1
20260504202403 29 114 1.6 3.2 0.00 0.05 0.00 60 1018.1
20260504202304 29 111 0.0 3.2 0.00 0.05 0.00 60 1018.0
20260504202203 29 104 0.0 3.2 0.00 0.05 0.00 60 1018.1
20260504202103 29 0 0.0 0.0 0.00 0.05 0.00 60 1018.0
20260504202024 29 0 0.0 0.0 0.00 0.05 0.00 60 1018.0
20260504201903 29 0 0.0 0.0 0.00 0.05 0.00 60 1017.9
20260504201803 29 0 0.0 0.0 0.00 0.05 0.00 60 1017.9
20260504201703 29 0 0.0 0.0 0.00 0.05 0.00 60 1018.1
20260504201603 29 0 0.0 0.0 0.00 0.05 0.00 60 1018.1
20260504201524 29 0 0.0 0.0 0.00 0.05 0.00 60 1018.0
20260504201403 29 0 0.0 0.0 0.00 0.05 0.00 60 1018.0
20260504201303 29 0 0.0 0.0 0.00 0.05 0.00 60 1018.1
20260504201224 29 0 0.0 0.0 0.00 0.05 0.00 60 1018.0
20260504201104 29 0 0.0 0.0 0.00 0.05 0.00 60 1018.0
20260504201005 29 0 0.0 0.0 0.00 0.05 0.00 60 1018.0
20260504200903 29 0 0.0 0.0 0.00 0.05 0.00 60 1018.1
20260504200803 29 0 0.0 0.0 0.00 0.05 0.00 60 1018.0
20260504200703 29 0 0.0 0.0 0.00 0.05 0.00 60 1018.0
20260504200603 29 0 0.0 0.0 0.00 0.05 0.00 60 1018.0
20260504200503 29 0 0.0 0.0 0.00 0.05 0.00 60 1018.0
20260504200403 29 0 0.0 0.0 0.00 0.05 0.00 60 1018.0
20260504200303 29 0 0.0 0.0 0.00 0.05 0.00 60 1017.9
20260504200203 29 0 0.0 0.0 0.00 0.05 0.00 60 1018.0
20260504200103 29 0 0.0 0.0 0.00 0.05 0.00 60 1018.0
20260504200004 29 0 0.0 0.0 0.00 0.05 0.00 60 1018.1
20260504195903 29 0 0.0 0.0 0.00 0.05 0.00 60 1018.3
20260504195803 29 0 0.0 0.0 0.00 0.05 0.00 60 1018.0
20260504195703 29 0 0.0 0.0 0.00 0.05 0.00 60 1018.0
20260504195625 29 0 0.0 0.0 0.00 0.05 0.00 60 1018.0
20260504195503 29 0 0.0 0.0 0.00 0.05 0.00 60 1018.0
20260504195403 29 0 0.0 0.0 0.00 0.05 0.00 60 1018.0
20260504195304 29 0 0.0 0.0 0.00 0.05 0.00 60 1018.1
20260504195224 29 0 0.0 0.0 0.00 0.05 0.00 60 1018.1
20260504195103 29 0 0.0 0.0 0.00 0.05 0.00 60 1018.0
20260504195003 29 0 0.0 0.0 0.00 0.05 0.00 60 1018.0
20260504194903 29 0 0.0 0.0 0.00 0.05 0.00 60 1018.1
20260504194824 29 0 0.0 0.0 0.00 0.05 0.00 60 1018.1
20260504194724 29 0 0.0 0.0 0.00 0.05 0.00 60 1018.1
20260504194603 29 0 0.0 0.0 0.00 0.05 0.00 60 1018.4
20260504194503 29 0 0.0 0.0 0.00 0.05 0.00 60 1018.0
20260504194403 29 0 0.0 0.0 0.00 0.05 0.00 60 1018.3
20260504194303 29 0 0.0 0.0 0.00 0.05 0.00 60 1018.0
20260504194203 29 0 0.0 0.0 0.00 0.05 0.00 60 1018.1
20260504194103 29 0 0.0 0.0 0.00 0.05 0.00 60 1018.1
20260504194024 29 0 0.0 0.0 0.00 0.05 0.00 60 1018.3
20260504193903 29 0 0.0 0.0 0.00 0.05 0.00 60 1018.1
20260504193804 29 0 0.0 0.0 0.00 0.05 0.00 60 1018.1
20260504193703 29 0 0.0 0.0 0.00 0.05 0.00 60 1018.1
20260504193605 29 0 0.0 0.0 0.00 0.05 0.00 60 1018.1
20260504193503 29 266 0.0 1.6 0.00 0.05 0.00 60 1018.1
20260504193403 29 222 0.0 3.2 0.00 0.05 0.00 60 1018.3
20260504193304 29 222 0.0 3.2 0.00 0.05 0.00 60 1018.1
20260504193203 29 235 0.0 3.2 0.00 0.05 0.00 60 1018.0
20260504193124 29 247 0.0 3.2 0.00 0.05 0.00 60 1018.0
20260504193025 29 260 1.6 4.8 0.00 0.05 0.00 60 1018.0
20260504192903 29 265 1.6 4.8 0.00 0.05 0.00 60 1017.9
20260504192803 29 267 1.6 4.8 0.00 0.05 0.00 60 1018.3
20260504192724 29 267 1.6 4.8 0.00 0.05 0.00 60 1018.1
20260504192603 29 268 3.2 4.8 0.00 0.05 0.00 60 1018.3
20260504192504 29 268 3.2 4.8 0.00 0.05 0.00 60 1018.1
20260504192403 29 270 3.2 4.8 0.00 0.05 0.00 60 1018.3
20260504192304 29 269 3.2 4.8 0.00 0.05 0.00 60 1018.3
20260504192224 29 267 3.2 4.8 0.00 0.05 0.00 60 1018.1
20260504192124 29 265 3.2 4.8 0.00 0.05 0.00 60 1018.1
20260504192004 29 260 3.2 4.8 0.00 0.05 0.00 60 1018.1
20260504191925 29 260 3.2 4.8 0.00 0.05 0.00 60 1018.0
20260504191803 29 257 1.6 4.8 0.00 0.05 0.00 60 1018.3
20260504191725 29 252 1.6 4.8 0.00 0.05 0.00 60 1018.1
20260504191604 29 242 1.6 3.2 0.00 0.05 0.00 60 1018.3
20260504191504 29 234 1.6 3.2 0.00 0.05 0.00 60 1018.3
20260504191403 29 224 1.6 3.2 0.00 0.05 0.00 60 1018.1
20260504191303 29 220 1.6 3.2 0.00 0.05 0.00 60 1018.3
20260504191204 29 216 1.6 3.2 0.00 0.05 0.00 60 1018.3
20260504191103 29 216 1.6 3.2 0.00 0.05 0.00 60 1018.3
20260504191004 29 212 1.6 3.2 0.00 0.05 0.00 60 1018.3
20260504190903 29 209 1.6 3.2 0.00 0.05 0.00 60 1018.1
20260504190803 29 207 1.6 3.2 0.00 0.05 0.00 60 1018.4
20260504190724 29 202 1.6 3.2 0.00 0.05 0.00 60 1018.4
20260504190624 29 196 3.2 3.2 0.00 0.05 0.00 60 1018.5
20260504190524 29 193 3.2 3.2 0.00 0.05 0.00 60 1018.5
20260504190403 29 190 3.2 3.2 0.00 0.05 0.00 60 1018.4
20260504190303 29 188 1.6 3.2 0.00 0.05 0.00 60 1018.5
20260504190203 29 186 1.6 3.2 0.00 0.05 0.00 60 1018.5
20260504190103 29 184 1.6 3.2 0.00 0.05 0.00 60 1018.5
20260504190004 29 181 1.6 3.2 0.00 0.05 0.00 60 1018.5
20260504185925 29 181 1.6 3.2 0.00 0.05 0.00 60 1018.5
20260504185804 29 186 1.6 3.2 0.00 0.05 0.00 60 1018.4
20260504185704 29 192 1.6 3.2 0.00 0.05 0.00 60 1018.6
20260504185604 29 199 1.6 3.2 0.00 0.05 0.00 60 1018.5
20260504185504 29 202 1.6 3.2 0.00 0.05 0.00 60 1018.4
20260504185404 29 201 1.6 3.2 0.00 0.05 0.00 60 1018.6
20260504185304 29 202 1.6 3.2 0.00 0.05 0.00 60 1018.6
20260504185203 29 203 1.6 3.2 0.00 0.05 0.00 60 1018.5
20260504185124 29 203 1.6 3.2 0.00 0.05 0.00 60 1018.5
20260504185003 29 205 1.6 3.2 0.00 0.05 0.00 60 1018.6
20260504184903 29 209 1.6 3.2 0.00 0.05 0.00 60 1018.7
20260504184803 29 211 0.0 3.2 0.00 0.05 0.00 60 1018.4
20260504184703 29 206 0.0 3.2 0.00 0.05 0.00 60 1018.4
20260504184604 29 202 0.0 3.2 0.00 0.05 0.00 60 1018.4
20260504184525 29 198 0.0 3.2 0.00 0.05 0.00 60 1018.3
20260504184424 29 198 0.0 3.2 0.00 0.05 0.00 60 1018.5
20260504184303 29 198 0.0 3.2 0.00 0.05 0.00 60 1018.3
20260504184204 29 196 0.0 3.2 0.00 0.05 0.00 60 1018.4
20260504184103 29 196 0.0 3.2 0.00 0.05 0.00 60 1018.5
20260504184005 29 0 0.0 0.0 0.00 0.05 0.00 60 1018.5
20260504183703 29 0 0.0 0.0 0.00 0.05 0.00 60 1018.4
20260504183603 29 0 0.0 0.0 0.00 0.05 0.00 60 1018.5
20260504183503 29 0 0.0 0.0 0.00 0.05 0.00 60 1018.4
20260504183424 29 0 0.0 0.0 0.00 0.05 0.00 60 1018.4
20260504183325 29 0 0.0 0.0 0.00 0.05 0.00 60 1018.4
20260504183204 29 0 0.0 0.0 0.00 0.05 0.00 60 1018.6
20260504183103 29 0 0.0 0.0 0.00 0.05 0.00 60 1018.5
20260504183004 29 0 0.0 0.0 0.00 0.05 0.00 60 1018.5
20260504182904 29 0 0.0 0.0 0.00 0.05 0.05 60 1018.5
20260504182803 29 0 0.0 0.0 0.00 0.05 0.05 60 1018.5
20260504182703 29 0 0.0 0.0 0.00 0.05 0.05 60 1018.4
20260504182604 29 0 0.0 0.0 0.00 0.05 0.05 60 1018.4
20260504182503 29 0 0.0 0.0 0.00 0.05 0.05 60 1018.5
20260504182403 29 0 0.0 0.0 0.00 0.05 0.05 60 1018.5
20260504182304 29 0 0.0 0.0 0.00 0.05 0.05 60 1018.6
20260504182205 29 0 0.0 0.0 0.00 0.05 0.05 60 1018.4
20260504182103 29 0 0.0 0.0 0.00 0.05 0.05 60 1018.4
20260504182003 29 0 0.0 0.0 0.00 0.05 0.05 60 1018.5
20260504181903 29 0 0.0 0.0 0.00 0.05 0.05 60 1018.4
20260504181804 29 0 0.0 0.0 0.00 0.05 0.05 60 1018.4
20260504181725 29 0 0.0 0.0 0.00 0.05 0.05 60 1018.3
20260504181603 29 0 0.0 0.0 0.00 0.05 0.05 60 1018.4
20260504181503 29 196 0.0 3.2 0.00 0.05 0.05 60 1018.4
20260504181403 29 187 0.0 3.2 0.00 0.05 0.05 60 1018.4
20260504181303 29 184 0.0 3.2 0.00 0.05 0.05 60 1018.5
20260504181204 29 177 0.0 3.2 0.00 0.05 0.05 60 1018.4
20260504181103 29 173 1.6 3.2 0.00 0.05 0.05 60 1018.6
20260504181004 29 172 1.6 3.2 0.00 0.05 0.05 60 1018.5
20260504180903 29 171 1.6 3.2 0.00 0.05 0.05 60 1018.5
20260504180824 29 170 1.6 3.2 0.00 0.05 0.05 60 1018.5
20260504180704 29 169 1.6 3.2 0.00 0.05 0.05 60 1018.5
20260504180624 29 169 1.6 3.2 0.00 0.05 0.05 60 1018.5
20260504180505 29 159 3.2 3.2 0.00 0.05 0.05 60 1018.6
20260504180424 29 156 3.2 3.2 0.00 0.05 0.05 60 1018.4
20260504180304 29 151 3.2 3.2 0.00 0.05 0.05 60 1018.5
20260504180203 29 150 3.2 3.2 0.00 0.05 0.05 60 1018.4
20260504180104 29 149 1.6 3.2 0.00 0.05 0.05 60 1018.5
20260504180004 29 147 1.6 3.2 0.00 0.05 0.05 60 1018.7
20260504175903 29 145 1.6 3.2 0.00 0.05 0.05 60 1018.6
20260504175803 29 141 1.6 3.2 0.00 0.05 0.05 60 1018.6
20260504175704 29 136 1.6 3.2 0.00 0.05 0.05 60 1018.6
20260504175603 29 121 1.6 3.2 0.00 0.05 0.05 60 1018.8
20260504175504 29 115 0.0 3.2 0.00 0.05 0.05 60 1018.6
20260504175404 29 106 0.0 3.2 0.00 0.05 0.05 60 1018.6
20260504175304 29 0 0.0 0.0 0.00 0.05 0.05 60 1018.6
20260504175204 29 0 0.0 0.0 0.00 0.05 0.05 60 1018.4
20260504175103 29 0 0.0 0.0 0.00 0.05 0.05 60 1018.6
20260504175003 29 0 0.0 0.0 0.00 0.05 0.05 60 1018.5
20260504174924 29 0 0.0 0.0 0.00 0.05 0.05 60 1018.6
20260504174826 29 0 0.0 0.0 0.00 0.05 0.05 60 1018.6
20260504174703 29 0 0.0 0.0 0.00 0.05 0.05 60 1018.4
20260504174603 29 0 0.0 0.0 0.00 0.05 0.05 60 1018.5
20260504174525 29 0 0.0 0.0 0.00 0.05 0.05 60 1018.4
20260504174403 29 0 0.0 0.0 0.00 0.05 0.05 60 1018.4
20260504174304 29 0 0.0 0.0 0.00 0.05 0.05 60 1018.4
20260504174224 29 0 0.0 0.0 0.00 0.05 0.05 60 1018.6
20260504174103 29 0 0.0 0.0 0.00 0.05 0.05 60 1018.5
20260504174003 29 0 0.0 0.0 0.00 0.05 0.05 60 1018.5
20260504173903 29 0 0.0 0.0 0.00 0.05 0.05 60 1018.6
20260504173803 29 0 0.0 0.0 0.00 0.05 0.05 60 1018.5
20260504173724 29 0 0.0 0.0 0.00 0.05 0.05 60 1018.7
20260504173603 29 0 0.0 0.0 0.00 0.05 0.05 60 1018.5
20260504173503 29 0 0.0 0.0 0.00 0.05 0.05 60 1018.7
20260504173403 29 0 0.0 0.0 0.00 0.05 0.05 60 1018.7
20260504173304 29 281 0.0 1.6 0.00 0.05 0.05 60 1018.8
20260504173203 29 280 0.0 1.6 0.00 0.05 0.05 60 1018.8
20260504173103 29 280 0.0 1.6 0.00 0.05 0.05 60 1018.7
20260504173005 29 280 0.0 1.6 0.00 0.05 0.05 60 1018.5
20260504172904 29 280 0.0 1.6 0.00 0.05 0.05 60 1018.6
20260504172804 29 279 0.0 1.6 0.00 0.05 0.05 60 1018.8
20260504172703 29 279 0.0 1.6 0.00 0.05 0.05 60 1018.7
20260504172603 29 279 0.0 1.6 0.00 0.05 0.05 60 1018.6
20260504172504 29 279 0.0 1.6 0.00 0.05 0.05 60 1018.5
20260504172403 29 279 0.0 1.6 0.00 0.05 0.05 60 1018.6
20260504172304 29 279 0.0 1.6 0.00 0.05 0.05 60 1018.6
20260504172203 29 279 0.0 1.6 0.00 0.05 0.05 60 1018.7
20260504172124 29 278 0.0 3.2 0.00 0.05 0.05 60 1018.8
20260504172024 29 274 0.0 3.2 0.00 0.05 0.05 60 1018.8
20260504171904 29 270 1.6 3.2 0.00 0.05 0.05 60 1018.8
20260504171824 29 270 1.6 3.2 0.00 0.05 0.05 60 1018.8
20260504171703 29 264 1.6 3.2 0.00 0.05 0.05 60 1018.6
20260504171603 29 265 1.6 3.2 0.00 0.05 0.05 60 1018.6
20260504171504 29 265 1.6 3.2 0.00 0.05 0.05 60 1018.8
20260504171403 29 260 1.6 3.2 0.00 0.05 0.05 60 1018.9
20260504171305 29 257 1.6 3.2 0.00 0.05 0.05 60 1018.6
20260504171203 29 253 1.6 4.8 0.00 0.05 0.05 60 1018.9
20260504171103 29 250 1.6 4.8 0.00 0.05 0.05 60 1018.9
20260504171004 29 243 1.6 4.8 0.00 0.05 0.05 60 1018.9
20260504170903 29 234 1.6 4.8 0.00 0.05 0.05 60 1018.9
20260504170804 29 230 3.2 4.8 0.00 0.05 0.05 60 1018.7
20260504170703 29 230 1.6 4.8 0.00 0.05 0.05 60 1018.8
20260504170603 29 226 1.6 4.8 0.00 0.05 0.05 60 1018.7
20260504170503 29 217 1.6 4.8 0.00 0.05 0.05 60 1018.9
20260504170403 29 204 1.6 4.8 0.00 0.05 0.05 60 1018.8
20260504170304 29 193 1.6 4.8 0.00 0.05 0.05 60 1018.9
20260504170203 29 175 3.2 4.8 0.00 0.05 0.05 60 1018.8
20260504160403 29 316 0.0 3.2 0.00 0.05 0.05 60 1018.7
20260504160304 29 355 0.0 1.6 0.00 0.05 0.05 60 1018.7
20260504160203 29 44 0.0 1.6 0.00 0.05 0.05 60 1018.7
20260504160103 29 58 0.0 1.6 0.00 0.05 0.05 60 1018.6
20260504151103 29 0 0.0 0.0 0.00 0.05 0.05 60 1018.3
20260504151003 29 284 0.0 1.6 0.00 0.05 0.05 60 1018.3
20260504150903 29 283 0.0 1.6 0.00 0.05 0.05 60 1018.1
20260504150803 29 283 0.0 3.2 0.00 0.05 0.05 60 1018.0
20260504150724 29 284 1.6 3.2 0.00 0.05 0.05 60 1018.0
20260504150624 29 285 1.6 3.2 0.00 0.05 0.05 60 1018.1
20260504150504 29 286 1.6 3.2 0.00 0.05 0.05 60 1018.0
20260504150403 29 287 1.6 3.2 0.00 0.05 0.05 60 1018.0
20260504150303 29 287 1.6 3.2 0.00 0.05 0.05 60 1018.1
20260504150203 29 287 1.6 3.2 0.00 0.05 0.05 60 1018.0
20260504150103 29 288 1.6 3.2 0.00 0.05 0.05 60 1018.1
20260504141324 29 293 1.6 3.2 0.00 0.05 0.05 60 1017.4
20260504141203 29 293 1.6 3.2 0.00 0.05 0.05 60 1017.4
20260504141125 29 292 1.6 3.2 0.00 0.05 0.05 60 1017.3
20260504141024 29 291 1.6 3.2 0.00 0.05 0.05 60 1017.4
20260504140903 29 292 1.6 3.2 0.00 0.05 0.05 60 1017.4
20260504140803 29 291 1.6 3.2 0.00 0.05 0.05 60 1017.3
20260504140703 29 290 1.6 3.2 0.00 0.05 0.05 60 1017.3
20260504140603 29 288 1.6 3.2 0.00 0.05 0.05 60 1017.3
20260504140524 29 288 1.6 3.2 0.00 0.05 0.05 60 1017.3
20260504140403 29 283 1.6 3.2 0.00 0.05 0.05 60 1017.2
20260504140304 29 280 1.6 3.2 0.00 0.05 0.05 60 1017.2
20260504140203 29 273 1.6 3.2 0.00 0.05 0.05 60 1017.1
20260504140103 29 269 1.6 3.2 0.00 0.05 0.05 60 1017.2
20260504130804 29 325 3.2 4.8 0.00 0.05 0.05 60 1016.5
20260504130703 29 325 3.2 4.8 0.00 0.05 0.05 60 1016.4
20260504130603 29 323 4.8 4.8 0.00 0.05 0.05 60 1016.5
20260504130503 29 321 4.8 4.8 0.00 0.05 0.05 60 1016.4
20260504130403 29 322 4.8 4.8 0.00 0.05 0.05 60 1016.3
20260504130325 29 322 4.8 4.8 0.00 0.05 0.05 60 1016.4
20260504130203 29 324 4.8 4.8 0.00 0.05 0.05 60 1016.4
20260504130104 29 324 4.8 4.8 0.00 0.05 0.05 60 1016.4
20260504120203 29 334 6.4 9.7 0.00 0.15 0.05 60 1015.9
20260504120103 29 335 6.4 9.7 0.00 0.15 0.05 60 1015.9
20260504110624 29 2 8.0 12.9 0.00 0.20 0.05 60 1015.8
20260504110503 29 2 9.7 12.9 0.00 0.20 0.05 60 1015.6
20260504110403 29 5 9.7 12.9 0.00 0.20 0.05 60 1015.8
20260504110303 29 4 9.7 12.9 0.00 0.20 0.05 60 1015.4
20260504110224 29 6 9.7 14.5 0.00 0.20 0.05 60 1015.9
20260504110103 29 8 11.3 14.5 0.00 0.20 0.05 60 1015.8
20260504100524 29 358 8.0 11.3 0.00 0.20 0.05 60 1016.1
20260504100403 29 2 8.0 11.3 0.00 0.20 0.05 60 1016.0
20260504100303 29 2 8.0 11.3 0.00 0.20 0.05 60 1015.9
20260504100205 29 2 6.4 11.3 0.00 0.20 0.05 60 1015.9
20260504100103 29 5 6.4 11.3 0.00 0.20 0.05 60 1016.0
20260504082003 29 269 3.2 6.4 0.00 0.20 0.05 60 1017.2
20260504081904 29 273 3.2 6.4 0.00 0.20 0.05 60 1017.4
20260504081803 29 285 3.2 6.4 0.00 0.20 0.05 60 1017.3
20260504081703 29 289 3.2 6.4 0.00 0.20 0.05 60 1017.2
20260504081603 29 298 4.8 6.4 0.00 0.20 0.05 60 1017.4
20260504081524 29 298 4.8 6.4 0.00 0.20 0.05 60 1017.5
20260504081403 29 304 4.8 9.7 0.00 0.20 0.05 60 1017.3
20260504081303 29 299 4.8 9.7 0.00 0.20 0.05 60 1017.4
20260504081203 29 291 6.4 9.7 0.00 0.20 0.05 60 1017.5
20260504081103 29 287 6.4 9.7 0.00 0.20 0.05 60 1017.4
20260504081003 29 288 6.4 9.7 0.00 0.20 0.05 60 1017.5
20260504080903 29 287 6.4 9.7 0.00 0.20 0.05 60 1017.7
20260504080803 29 286 6.4 9.7 0.00 0.20 0.05 60 1017.5
20260504080703 29 282 6.4 9.7 0.00 0.20 0.05 60 1017.6
20260504080603 29 283 4.8 9.7 0.00 0.20 0.05 60 1017.5
20260504080503 29 287 4.8 9.7 0.00 0.20 0.05 60 1017.7
20260504080403 29 287 4.8 9.7 0.00 0.20 0.05 60 1017.7
20260504080324 29 287 4.8 9.7 0.00 0.20 0.05 60 1017.5
20260504080205 29 298 3.2 6.4 0.00 0.20 0.05 60 1017.6
20260504070303 29 2 6.4 9.7 0.05 0.20 0.05 60 1018.7
20260504070203 29 4 6.4 9.7 0.05 0.20 0.05 60 1018.6
20260504070104 29 5 6.4 9.7 0.05 0.20 0.05 60 1018.8
20260504060203 29 1 8.0 11.3 0.00 0.15 0.00 60 1019.4
20260504060104 29 359 8.0 11.3 0.00 0.15 0.00 60 1019.5
20260504050703 29 345 9.7 11.3 0.00 0.15 0.00 60 1019.7
20260504050603 29 342 9.7 12.9 0.00 0.15 0.00 60 1019.9
20260504050503 29 341 9.7 12.9 0.00 0.15 0.00 60 1019.8
20260504050403 29 342 8.0 12.9 0.00 0.15 0.00 60 1019.8
20260504050303 29 339 8.0 12.9 0.00 0.15 0.00 60 1019.7
20260504050204 29 341 9.7 12.9 0.00 0.15 0.00 60 1019.8
20260504050104 29 343 8.0 12.9 0.00 0.15 0.00 60 1019.8
20260504050004 29 348 9.7 12.9 0.00 0.15 0.00 60 1019.7
20260504045924 29 349 9.7 12.9 0.00 0.15 0.00 60 1019.9
20260504045803 29 352 9.7 12.9 0.00 0.15 0.00 60 1019.8
20260504045724 29 350 8.0 12.9 0.00 0.15 0.00 60 1019.8
20260504045603 29 350 8.0 12.9 0.00 0.15 0.00 60 1019.8
20260504045503 29 350 8.0 12.9 0.00 0.15 0.00 60 1019.8
20260504045403 29 353 8.0 12.9 0.00 0.15 0.00 60 1019.8
20260504045304 29 358 8.0 12.9 0.00 0.15 0.00 60 1019.7
20260504045203 29 1 8.0 12.9 0.00 0.15 0.00 60 1019.9
20260504045103 29 4 8.0 12.9 0.00 0.15 0.00 60 1020.0
20260504045004 29 6 8.0 12.9 0.00 0.15 0.00 60 1019.9
20260504044903 29 359 8.0 12.9 0.00 0.15 0.00 60 1019.9
20260504044803 29 354 6.4 9.7 0.00 0.15 0.00 60 1019.9
20260504044703 29 353 8.0 11.3 0.00 0.15 0.00 60 1019.8
20260504044604 29 353 8.0 11.3 0.00 0.15 0.00 60 1020.0
20260504044504 29 353 8.0 12.9 0.00 0.15 0.00 60 1019.8
20260504044424 29 352 8.0 12.9 0.00 0.15 0.00 60 1020.0
20260504044303 29 346 8.0 12.9 0.00 0.15 0.00 60 1020.0
20260504044203 29 345 9.7 12.9 0.00 0.15 0.00 60 1019.9
20260504044104 29 342 9.7 12.9 0.00 0.15 0.00 60 1020.0
20260504044003 29 340 9.7 12.9 0.00 0.15 0.00 60 1020.1
20260504043903 29 343 9.7 12.9 0.00 0.15 0.00 60 1020.0
20260504043803 29 348 9.7 14.5 0.00 0.15 0.00 60 1020.0
20260504043724 29 350 9.7 14.5 0.00 0.15 0.00 60 1019.9
20260504043603 29 350 9.7 14.5 0.00 0.15 0.00 60 1019.9
20260504043503 29 351 9.7 14.5 0.00 0.15 0.00 60 1019.9
20260504043403 29 350 9.7 14.5 0.00 0.15 0.00 60 1020.0
20260504043303 29 350 9.7 14.5 0.00 0.15 0.00 60 1020.0
20260504043203 29 351 9.7 14.5 0.00 0.15 0.00 60 1020.1
20260504043104 29 351 9.7 14.5 0.00 0.15 0.00 60 1020.0
20260504043003 29 349 9.7 14.5 0.00 0.15 0.00 60 1020.1
20260504042903 29 345 9.7 14.5 0.00 0.15 0.00 60 1020.1
20260504042803 29 340 8.0 11.3 0.00 0.15 0.00 60 1020.0
20260504042724 29 343 9.7 12.9 0.00 0.15 0.00 60 1019.8
20260504042603 29 349 8.0 12.9 0.00 0.15 0.00 60 1019.9
20260504042503 29 348 8.0 12.9 0.00 0.15 0.00 60 1019.9
20260504042403 29 349 8.0 12.9 0.00 0.15 0.00 60 1020.0
20260504042304 29 352 9.7 12.9 0.00 0.15 0.00 60 1020.1
20260504042203 29 350 8.0 12.9 0.00 0.15 0.00 60 1020.1
20260504042104 29 349 8.0 12.9 0.00 0.15 0.00 60 1019.9
20260504042024 29 353 8.0 12.9 0.00 0.15 0.00 60 1020.2
20260504041903 29 356 8.0 12.9 0.00 0.15 0.00 60 1020.0
20260504041824 29 358 8.0 12.9 0.00 0.15 0.00 60 1019.9
20260504041703 29 353 6.4 11.3 0.00 0.15 0.00 60 1020.1
20260504041625 29 352 6.4 11.3 0.00 0.15 0.00 60 1020.1
20260504041503 29 351 6.4 11.3 0.00 0.15 0.00 60 1020.0
20260504041424 29 352 6.4 11.3 0.00 0.15 0.00 60 1020.0
20260504041304 29 348 6.4 9.7 0.00 0.15 0.00 60 1020.0
20260504041204 29 352 6.4 11.3 0.00 0.15 0.00 60 1019.9
20260504041103 29 353 6.4 11.3 0.00 0.15 0.00 60 1019.9
20260504041003 29 351 6.4 11.3 0.00 0.15 0.00 60 1020.0
20260504040903 29 348 6.4 11.3 0.00 0.15 0.00 60 1020.1
20260504040803 29 349 8.0 11.3 0.00 0.15 0.00 60 1019.9
20260504040724 29 351 8.0 14.5 0.00 0.15 0.00 60 1020.1
20260504040603 29 351 9.7 14.5 0.00 0.15 0.00 60 1020.0
20260504040503 29 349 9.7 14.5 0.00 0.15 0.00 60 1019.9
20260504040424 29 349 9.7 14.5 0.00 0.15 0.00 60 1020.0
20260504040324 29 347 9.7 14.5 0.00 0.15 0.00 60 1020.0
20260504040224 29 347 9.7 14.5 0.00 0.15 0.00 60 1020.0
20260504040103 29 346 9.7 14.5 0.00 0.15 0.00 60 1020.0
20260504040024 29 343 9.7 14.5 0.00 0.15 0.00 60 1020.0
20260504035903 29 344 9.7 14.5 0.00 0.15 0.00 60 1019.9
20260504035824 29 346 9.7 14.5 0.00 0.15 0.00 60 1019.9
20260504035703 29 343 9.7 16.1 0.00 0.15 0.00 60 1019.8
20260504035603 29 340 9.7 16.1 0.00 0.15 0.00 60 1020.0
20260504035503 29 340 9.7 16.1 0.00 0.15 0.00 60 1019.7
20260504035403 29 336 9.7 16.1 0.00 0.15 0.00 60 1019.9
20260504035326 29 337 9.7 16.1 0.00 0.15 0.00 60 1019.8
20260504035203 29 337 9.7 16.1 0.00 0.15 0.00 60 1019.9
20260504035103 29 338 9.7 16.1 0.00 0.15 0.00 60 1019.9
20260504035024 29 337 9.7 16.1 0.00 0.15 0.00 60 1019.9
20260504034924 29 336 9.7 16.1 0.00 0.15 0.00 60 1020.0
20260504034824 29 336 11.3 16.1 0.00 0.15 0.00 60 1019.9
20260504034703 29 337 9.7 14.5 0.00 0.15 0.00 60 1019.9
20260504034603 29 339 9.7 14.5 0.00 0.15 0.00 60 1019.8
20260504034524 29 340 9.7 14.5 0.00 0.15 0.00 60 1020.0
20260504034403 29 341 9.7 14.5 0.00 0.15 0.00 60 1019.9
20260504034303 29 345 8.0 14.5 0.00 0.15 0.00 60 1019.9
20260504034203 29 348 8.0 14.5 0.00 0.15 0.00 60 1019.8
20260504034103 29 347 8.0 14.5 0.00 0.15 0.00 60 1019.9
20260504034004 29 350 8.0 14.5 0.00 0.15 0.00 60 1019.8
20260504033903 29 353 8.0 14.5 0.00 0.15 0.00 60 1019.8
20260504033803 29 351 9.7 14.5 0.00 0.15 0.00 60 1019.9
20260504033705 29 345 9.7 14.5 0.00 0.15 0.00 60 1019.7
20260504033603 29 342 9.7 14.5 0.00 0.15 0.00 60 1019.8
20260504033503 29 341 9.7 16.1 0.00 0.15 0.00 60 1019.7
20260504033403 29 344 9.7 16.1 0.00 0.15 0.00 60 1019.8
20260504033303 29 340 11.3 16.1 0.00 0.15 0.00 60 1019.8
20260504033203 29 337 11.3 16.1 0.00 0.15 0.00 60 1019.8
20260504033104 29 336 11.3 16.1 0.00 0.15 0.00 60 1019.9
20260504033003 29 335 11.3 16.1 0.00 0.15 0.00 60 1019.8
20260504032903 29 334 11.3 16.1 0.00 0.15 0.00 60 1019.7
20260504032803 29 336 11.3 16.1 0.00 0.15 0.00 60 1019.8
20260504032703 29 341 9.7 16.1 0.00 0.15 0.00 60 1019.9
20260504032603 29 342 9.7 16.1 0.00 0.15 0.00 60 1019.9
20260504032524 29 342 9.7 16.1 0.00 0.15 0.00 60 1019.9
20260504032403 29 343 9.7 12.9 0.00 0.15 0.00 60 1019.8
20260504032304 29 347 9.7 12.9 0.00 0.15 0.00 60 1019.9
20260504032203 29 350 9.7 12.9 0.00 0.15 0.00 60 1019.8
20260504032105 29 352 8.0 12.9 0.00 0.15 0.00 60 1019.7
20260504032003 29 356 8.0 12.9 0.00 0.15 0.00 60 1019.9
20260504031903 29 355 8.0 12.9 0.00 0.15 0.00 60 1019.7
20260504031824 29 355 6.4 12.9 0.00 0.15 0.00 60 1019.8
20260504031703 29 360 6.4 12.9 0.00 0.15 0.00 60 1019.8
20260504031624 29 8 6.4 12.9 0.00 0.15 0.00 60 1019.8
20260504031503 29 17 6.4 14.5 0.00 0.15 0.00 60 1019.6
20260504031403 29 22 6.4 14.5 0.00 0.15 0.00 60 1019.9
20260504031303 29 20 6.4 14.5 0.00 0.15 0.00 60 1019.8
20260504031203 29 19 6.4 14.5 0.00 0.15 0.00 60 1019.8
20260504031103 29 17 6.4 14.5 0.00 0.15 0.00 60 1019.7
20260504031003 29 19 6.4 14.5 0.00 0.15 0.00 60 1019.5
20260504030924 29 19 6.4 14.5 0.00 0.15 0.00 60 1019.6
20260504030825 29 20 6.4 14.5 0.00 0.15 0.00 60 1019.7
20260504030703 29 21 6.4 14.5 0.00 0.15 0.00 60 1019.7
20260504030604 29 21 6.4 14.5 0.00 0.18 0.00 60 1019.7
20260504030504 29 17 4.8 9.7 0.00 0.18 0.00 60 1019.6
20260504030424 29 19 4.8 9.7 0.00 0.18 0.00 60 1019.7
20260504030303 29 23 4.8 9.7 0.00 0.18 0.00 60 1019.6
20260504030224 29 28 4.8 9.7 0.00 0.18 0.00 60 1019.6
20260504030004 29 37 4.8 11.3 0.00 0.18 0.00 60 1019.5
20260504025903 29 38 4.8 11.3 0.00 0.18 0.00 60 1019.6
20260504025803 29 42 4.8 11.3 0.00 0.18 0.00 60 1019.6
20260504025703 29 40 6.4 11.3 0.00 0.18 0.00 60 1019.5
20260504025603 29 39 6.4 11.3 0.00 0.18 0.00 60 1019.5
20260504025524 29 38 6.4 11.3 0.00 0.18 0.00 60 1019.6
20260504025403 29 35 6.4 11.3 0.00 0.20 0.00 60 1019.7
20260504025304 29 35 4.8 11.3 0.00 0.20 0.00 60 1019.6
20260504025224 29 35 4.8 11.3 0.00 0.23 0.00 60 1019.6
20260504025103 29 32 4.8 11.3 0.00 0.23 0.00 60 1019.7
20260504025003 29 26 4.8 11.3 0.00 0.25 0.00 60 1019.6
20260504024905 29 21 4.8 11.3 0.00 0.28 0.00 60 1019.6
20260504024803 29 12 6.4 11.3 0.00 0.30 0.00 60 1019.6
20260504024724 29 5 4.8 11.3 0.00 0.30 0.00 60 1019.6
20260504024603 29 355 4.8 11.3 0.00 0.36 0.00 60 1019.7
20260504024503 29 354 6.4 11.3 0.00 0.36 0.00 60 1019.5
20260504024424 29 355 6.4 11.3 0.00 0.38 0.00 60 1019.6
20260504024303 29 360 6.4 11.3 0.00 0.38 0.00 60 1019.5
20260504024203 29 1 6.4 11.3 0.00 0.38 0.00 60 1019.5
20260504024103 29 1 6.4 11.3 0.00 0.38 0.00 60 1019.5
20260504024003 29 7 6.4 11.3 0.00 0.41 0.00 60 1019.6
20260504023903 29 10 6.4 9.7 0.00 0.41 0.00 60 1019.4
20260504023824 29 14 6.4 9.7 0.00 0.41 0.00 60 1019.5
20260504023703 29 19 6.4 9.7 0.00 0.41 0.00 60 1019.7
20260504023604 29 22 6.4 9.7 0.00 0.43 0.00 60 1019.5
20260504023503 29 25 4.8 9.7 0.00 0.43 0.00 60 1019.6
20260504023403 29 31 6.4 9.7 0.00 0.46 0.00 60 1019.7
20260504023324 29 29 6.4 9.7 0.00 0.46 0.00 60 1019.7
20260504023203 29 27 6.4 9.7 0.00 0.46 0.00 60 1019.5
20260504023125 29 27 6.4 9.7 0.00 0.46 0.00 60 1019.4
20260504023003 29 25 6.4 9.7 0.00 0.48 0.00 60 1019.5
20260504022903 29 26 6.4 9.7 0.00 0.48 0.00 60 1019.4
20260504022803 29 27 6.4 9.7 0.00 0.48 0.00 60 1019.2
20260504022703 29 26 6.4 9.7 0.00 0.48 0.00 60 1019.5
20260504022624 29 25 6.4 9.7 0.00 0.51 0.00 60 1019.6
20260504022503 29 22 6.4 9.7 0.00 0.51 0.00 60 1019.6
20260504022403 29 15 4.8 9.7 0.00 0.53 0.00 60 1019.4
20260504022324 29 13 4.8 9.7 0.00 0.53 0.00 60 1019.5
20260504022203 29 7 6.4 9.7 0.00 0.53 0.00 60 1019.4
20260504022103 29 2 6.4 9.7 0.00 0.53 0.00 60 1019.4
20260504022003 29 359 6.4 9.7 0.00 0.56 0.00 60 1019.6
20260504021903 29 355 6.4 12.9 0.00 0.56 0.00 60 1019.5
20260504021803 29 353 6.4 12.9 0.00 0.58 0.00 60 1019.4
20260504021703 29 352 6.4 12.9 0.00 0.58 0.00 60 1019.5
20260504021603 29 353 8.0 12.9 0.00 0.58 0.00 60 1019.5
20260504021504 29 356 8.0 12.9 0.00 0.58 0.00 60 1019.2
20260504021403 29 355 8.0 12.9 0.00 0.58 0.00 60 1019.5
20260504021304 29 357 8.0 12.9 0.00 0.61 0.00 60 1019.4
20260504021224 29 358 8.0 12.9 0.00 0.61 0.00 60 1019.5
20260504021124 29 359 8.0 12.9 0.00 0.61 0.00 60 1019.5
20260504021025 29 1 8.0 12.9 0.00 0.61 0.00 60 1019.4
20260504020903 29 8 6.4 11.3 0.00 0.61 0.00 60 1019.4
20260504020803 29 11 6.4 11.3 0.00 0.64 0.00 60 1019.4
20260504020724 29 12 6.4 11.3 0.00 0.66 0.00 60 1019.2
20260504020603 29 12 6.4 9.7 0.00 0.66 0.00 60 1019.2
20260504020503 29 10 6.4 9.7 0.00 0.69 0.00 60 1019.4
20260504020403 29 12 6.4 9.7 0.00 0.71 0.00 60 1019.4
20260504020303 29 13 6.4 9.7 0.00 0.71 0.00 60 1019.5
20260504020203 29 15 4.8 9.7 0.00 0.71 0.00 60 1019.2
20260504020103 29 13 4.8 9.7 0.00 0.74 0.00 60 1019.2
20260504020004 29 12 6.4 9.7 0.00 0.74 0.00 60 1019.4
20260504015903 29 10 6.4 9.7 0.00 0.74 0.00 60 1019.2
20260504015803 29 6 6.4 9.7 0.00 0.76 0.00 60 1019.5
20260504015703 29 3 6.4 9.7 0.00 0.76 0.00 60 1019.2
20260504015603 29 360 6.4 9.7 0.00 0.76 0.00 60 1019.2
20260504015524 29 360 6.4 9.7 0.00 0.76 0.00 60 1019.2
20260504015403 29 357 6.4 9.7 0.00 0.76 0.00 60 1019.1
20260504015304 29 355 6.4 9.7 0.00 0.76 0.00 60 1019.1
20260504015226 29 355 6.4 9.7 0.00 0.76 0.00 60 1019.1
20260504015103 29 354 6.4 9.7 0.00 0.76 0.00 60 1019.4
20260504015003 29 351 6.4 9.7 0.00 0.76 0.00 60 1019.2
20260504014903 29 348 4.8 9.7 0.00 0.76 0.00 60 1019.5
20260504014803 29 346 4.8 9.7 0.00 0.76 0.00 60 1019.2
20260504014724 29 346 4.8 9.7 0.00 0.76 0.00 60 1019.2
20260504014603 29 345 3.2 6.4 0.00 0.76 0.00 60 1019.2
20260504014524 29 345 3.2 6.4 0.00 0.79 0.00 60 1019.1
20260504014403 29 340 3.2 6.4 0.00 0.79 0.00 60 1019.1
20260504014303 29 343 3.2 6.4 0.00 0.79 0.00 60 1019.0
20260504014203 29 341 1.6 6.4 0.00 0.79 0.00 60 1019.0
20260504014103 29 348 1.6 6.4 0.00 0.79 0.00 60 1019.0
20260504014024 29 354 1.6 6.4 0.00 0.79 0.00 60 1019.0
20260504013924 29 4 1.6 3.2 0.00 0.79 0.00 60 1018.9
20260504013803 29 15 1.6 4.8 0.00 0.79 0.00 60 1018.9
20260504013703 29 21 1.6 4.8 0.00 0.79 0.00 60 1018.9
20260504013603 29 30 1.6 4.8 0.00 0.79 0.00 60 1018.9
20260504013503 29 30 1.6 4.8 0.00 0.79 0.00 60 1018.8
20260504013403 29 36 1.6 4.8 0.00 0.79 0.00 60 1019.0
20260504013305 29 38 1.6 4.8 0.00 0.79 0.00 60 1018.8
20260504013203 29 39 1.6 4.8 0.00 0.79 0.00 60 1018.8
20260504013103 29 39 1.6 4.8 0.00 0.79 0.00 60 1018.8
20260504013003 29 33 1.6 4.8 0.00 0.79 0.00 60 1018.8
20260504012903 29 14 1.6 4.8 0.00 0.79 0.00 60 1018.7
20260504012803 29 6 1.6 4.8 0.00 0.79 0.00 60 1018.9
20260504012724 29 358 1.6 3.2 0.00 0.79 0.00 60 1018.8
20260504012624 29 344 1.6 3.2 0.00 0.79 0.00 60 1018.9
20260504012503 29 342 1.6 3.2 0.00 0.79 0.00 60 1019.0
20260504012403 29 343 1.6 3.2 0.00 0.79 0.00 60 1018.8
20260504012304 29 351 1.6 6.4 0.00 0.79 0.00 60 1018.8
20260504012203 29 353 3.2 6.4 0.00 0.79 0.00 60 1018.8
20260504012103 29 353 3.2 6.4 0.00 0.79 0.00 60 1018.8
20260504012003 29 353 3.2 6.4 0.00 0.79 0.00 60 1018.9
20260504011903 29 358 3.2 6.4 0.00 0.79 0.00 60 1018.6
20260504011803 29 360 4.8 9.7 0.00 0.79 0.00 60 1018.8
20260504011703 29 360 4.8 9.7 0.00 0.79 0.00 60 1018.7
20260504011603 29 2 4.8 9.7 0.00 0.79 0.00 60 1018.8
20260504011503 29 4 4.8 9.7 0.00 0.79 0.00 60 1018.7
20260504011424 29 5 4.8 9.7 0.00 0.79 0.00 60 1018.8
20260504011303 29 3 4.8 9.7 0.00 0.79 0.00 60 1018.7
20260504011205 29 4 4.8 9.7 0.00 0.79 0.00 60 1018.6
20260504011103 29 5 4.8 9.7 0.00 0.79 0.00 60 1018.7
20260504011024 29 8 4.8 9.7 0.00 0.79 0.00 60 1018.8
20260504010903 29 9 4.8 9.7 0.00 0.79 0.00 60 1018.7
20260504010803 29 11 3.2 6.4 0.00 0.79 0.00 60 1018.8
20260504010703 29 11 3.2 6.4 0.00 0.79 0.00 60 1018.7
20260504010603 29 10 3.2 6.4 0.00 0.79 0.00 60 1018.7
20260504010503 29 5 3.2 6.4 0.00 0.79 0.00 60 1018.7
20260504010424 29 4 3.2 6.4 0.00 0.79 0.00 60 1018.7
20260504010303 29 1 3.2 4.8 0.00 0.79 0.00 60 1018.6
20260504010204 29 353 3.2 4.8 0.00 0.79 0.00 60 1018.6
20260504010024 29 342 3.2 4.8 0.00 0.81 0.00 60 1018.7
20260504005903 29 339 3.2 4.8 0.00 0.81 0.00 60 1018.6
20260504005803 29 338 3.2 4.8 0.00 0.81 0.00 60 1018.6
20260504005724 29 336 3.2 4.8 0.00 0.81 0.00 60 1018.8
20260504005604 29 338 3.2 4.8 0.00 0.81 0.00 60 1018.7
20260504005504 29 340 3.2 4.8 0.00 0.81 0.00 60 1018.5
20260504005403 29 340 3.2 4.8 0.00 0.84 0.00 60 1018.4
20260504005305 29 343 3.2 4.8 0.00 0.84 0.00 60 1018.6
20260504005224 29 347 3.2 4.8 0.00 0.86 0.00 60 1018.5
20260504005104 29 356 3.2 4.8 0.00 0.86 0.00 60 1018.5
20260504005004 29 359 3.2 4.8 0.00 0.89 0.00 60 1018.6
20260504004903 29 1 3.2 4.8 0.00 0.91 0.00 60 1018.4
20260504004803 29 2 3.2 4.8 0.00 0.94 0.00 60 1018.5
20260504004703 29 5 3.2 4.8 0.00 0.97 0.00 60 1018.4
20260504004604 29 11 1.6 4.8 0.00 0.99 0.00 60 1018.4
20260504004504 29 18 1.6 3.2 0.00 1.02 0.00 60 1018.3
20260504004424 29 20 1.6 3.2 0.00 1.02 0.00 60 1018.3
20260504004324 29 20 1.6 3.2 0.00 1.04 0.00 60 1018.5
20260504004203 29 21 1.6 3.2 0.00 1.04 0.00 60 1018.5
20260504004103 29 20 1.6 3.2 0.00 1.04 0.00 60 1018.3
20260504004003 29 21 0.0 3.2 0.00 1.07 0.00 60 1018.4
20260504003904 29 22 0.0 3.2 0.00 1.07 0.00 60 1018.5
20260504003824 29 24 0.0 3.2 0.00 1.07 0.00 60 1018.4
20260504003704 29 24 0.0 3.2 0.00 1.07 0.00 60 1018.4
20260504003603 29 26 1.6 3.2 0.00 1.09 0.00 60 1018.4
20260504003505 29 24 1.6 3.2 0.00 1.09 0.00 60 1018.4
20260504003403 29 25 1.6 3.2 0.00 1.09 0.00 60 1018.3
20260504003303 29 27 0.0 3.2 0.00 1.09 0.00 60 1018.3
20260504003203 29 27 0.0 3.2 0.00 1.09 0.00 60 1017.9
20260504003104 29 26 0.0 3.2 0.00 1.12 0.00 60 1018.3
20260504003004 29 26 0.0 3.2 0.00 1.12 0.00 60 1018.3
20260504002903 29 26 0.0 1.6 0.00 1.12 0.00 60 1018.3
20260504002803 29 23 0.0 1.6 0.00 1.12 0.00 60 1018.1
20260504002704 29 23 0.0 1.6 0.00 1.12 0.00 60 1017.9
20260504002603 29 23 0.0 1.6 0.00 1.12 0.00 60 1018.0
20260504002503 29 10 0.0 1.6 0.00 1.12 0.00 60 1018.0
20260504002404 29 0 0.0 0.0 0.00 1.12 0.00 60 1017.9
20260504002324 29 0 0.0 0.0 0.00 1.12 0.00 60 1018.0
20260504002203 29 0 0.0 0.0 0.00 1.12 0.00 60 1018.1
20260504002103 29 0 0.0 0.0 0.00 1.14 0.00 60 1018.0
20260504002003 29 0 0.0 0.0 0.00 1.14 0.00 60 1018.0
20260504001903 29 0 0.0 0.0 0.00 1.14 0.00 60 1018.1
20260504001803 29 0 0.0 0.0 0.00 1.14 0.00 60 1018.0
20260504001703 29 0 0.0 0.0 0.00 1.14 0.00 60 1018.0
20260504001624 29 0 0.0 0.0 0.00 1.14 0.00 60 1018.0
20260504001525 29 0 0.0 0.0 0.00 1.17 0.00 60 1018.0
20260504001404 29 0 0.0 0.0 0.00 1.17 0.00 60 1017.9
20260504001324 29 0 0.0 0.0 0.00 1.17 0.00 60 1017.8
20260504001205 29 0 0.0 0.0 0.00 1.17 0.00 60 1017.9
20260504001103 29 0 0.0 0.0 0.00 1.19 0.00 60 1017.9
20260504001003 29 0 0.0 0.0 0.00 1.19 0.00 60 1017.8
20260504000903 29 0 0.0 0.0 0.00 1.22 0.00 60 1017.8
20260504000803 29 0 0.0 0.0 0.00 1.24 0.00 60 1017.7
20260504000724 29 0 0.0 0.0 0.00 1.24 0.00 60 1017.6
20260504000604 29 0 0.0 0.0 0.00 1.27 0.00 60 1017.7
20260504000503 29 0 0.0 0.0 0.00 1.30 0.00 60 1017.7
20260504000403 29 0 0.0 0.0 0.00 1.32 0.00 60 1017.6
20260504000303 29 0 0.0 0.0 0.00 1.32 0.00 60 1017.6
20260504000204 29 0 0.0 0.0 0.00 1.35 0.00 60 1017.5
20260504000103 29 0 0.0 0.0 0.00 1.35 0.00 60 1017.6
20260504000004 29 0 0.0 0.0 0.00 1.37 0.00 60 1017.8
20260503235924 29 0 0.0 0.0 0.00 1.37 0.00 60 1017.9
20260503235804 29 0 0.0 0.0 0.00 1.37 0.00 60 1017.7
20260503235704 29 0 0.0 0.0 0.00 1.37 0.00 60 1017.7
20260503235603 29 0 0.0 0.0 0.00 1.37 0.00 60 1017.7
20260503235503 29 0 0.0 0.0 0.00 1.37 0.00 60 1017.8
20260503235426 29 0 0.0 0.0 0.00 1.37 0.00 60 1017.7
20260503235324 29 0 0.0 0.0 0.00 1.37 0.00 60 1017.7
20260503235203 29 0 0.0 0.0 0.00 1.37 0.00 60 1017.7
20260503235124 29 0 0.0 0.0 0.00 1.37 0.00 60 1017.7
20260503235003 29 0 0.0 0.0 0.00 1.37 0.00 60 1017.7
20260503234903 29 0 0.0 0.0 0.00 1.37 0.00 60 1017.9
20260503234803 29 0 0.0 0.0 0.00 1.37 0.00 60 1017.8
20260503234703 29 308 0.0 1.6 0.00 1.37 0.00 60 1017.6
20260503234603 29 308 0.0 1.6 0.00 1.37 0.00 60 1017.8
20260503234503 29 308 0.0 1.6 0.00 1.40 0.00 60 1017.8
20260503234404 29 308 0.0 1.6 0.00 1.40 0.00 60 1017.6
20260503234303 29 308 0.0 1.6 0.00 1.40 0.00 60 1017.7
20260503234225 29 308 0.0 1.6 0.00 1.40 0.00 60 1017.7
20260503234103 29 308 0.0 1.6 0.00 1.40 0.00 60 1017.8
20260503234003 29 308 0.0 1.6 0.00 1.40 0.00 60 1017.5
20260503233925 29 308 0.0 1.6 0.00 1.42 0.00 60 1017.6
20260503233804 29 308 0.0 1.6 0.00 1.42 0.00 60 1017.7
20260503233703 29 308 0.0 1.6 0.00 1.45 0.00 60 1017.6
20260503233603 29 0 0.0 0.0 0.00 1.45 0.00 60 1017.7
20260503233503 29 0 0.0 0.0 0.00 1.45 0.00 60 1017.6
20260503233403 29 0 0.0 0.0 0.00 1.45 0.00 60 1017.6
20260503233303 29 0 0.0 0.0 0.00 1.45 0.00 60 1018.0
20260503233203 29 0 0.0 0.0 0.00 1.47 0.00 60 1017.7
20260503233103 29 0 0.0 0.0 0.00 1.47 0.00 60 1017.6
20260503233003 29 0 0.0 0.0 0.00 1.47 0.00 60 1017.6
20260503232903 29 0 0.0 0.0 0.00 1.47 0.00 60 1017.7
20260503232803 29 0 0.0 0.0 0.00 1.50 0.00 60 1017.5
20260503232703 29 0 0.0 0.0 0.00 1.50 0.00 60 1017.7
20260503232604 29 0 0.0 0.0 0.00 1.50 0.00 60 1017.5
20260503232503 29 0 0.0 0.0 0.00 1.52 0.00 60 1017.6
20260503232403 29 0 0.0 0.0 0.00 1.52 0.00 60 1017.4
20260503232324 29 0 0.0 0.0 0.00 1.52 0.00 60 1017.6
20260503232224 29 0 0.0 0.0 0.00 1.52 0.00 60 1017.5
20260503232126 29 0 0.0 0.0 0.00 1.55 0.00 60 1017.4
20260503232003 29 0 0.0 0.0 0.00 1.55 0.00 60 1017.5
20260503231903 29 0 0.0 0.0 0.00 1.55 0.00 60 1017.3
20260503231824 29 0 0.0 0.0 0.00 1.55 0.00 60 1017.5
20260503231724 29 0 0.0 0.0 0.00 1.57 0.00 60 1017.4
20260503231603 29 0 0.0 0.0 0.00 1.57 0.00 60 1017.3
20260503231503 29 0 0.0 0.0 0.00 1.57 0.00 60 1017.5
20260503231404 29 0 0.0 0.0 0.00 1.57 0.00 60 1017.4
20260503231303 29 0 0.0 0.0 0.00 1.60 0.00 60 1017.3
20260503231203 29 0 0.0 0.0 0.00 1.60 0.00 60 1017.3
20260503231103 29 0 0.0 0.0 0.00 1.60 0.00 60 1017.4
20260503231004 29 0 0.0 0.0 0.00 1.60 0.00 60 1017.4
20260503230903 29 0 0.0 0.0 0.00 1.60 0.00 60 1017.3
20260503230803 29 0 0.0 0.0 0.00 1.63 0.00 60 1017.4
20260503230724 29 0 0.0 0.0 0.00 1.63 0.00 60 1017.3
20260503230603 29 0 0.0 0.0 0.00 1.63 0.00 60 1017.3
20260503230505 29 0 0.0 0.0 0.00 1.65 0.00 60 1017.2
20260503230403 29 0 0.0 0.0 0.00 1.68 0.00 60 1017.4
20260503230303 29 0 0.0 0.0 0.00 1.68 0.00 60 1017.3
20260503230203 29 0 0.0 0.0 0.00 1.73 0.00 60 1017.3
20260503230103 29 0 0.0 0.0 0.00 1.78 0.00 60 1017.3
20260503230003 29 0 0.0 0.0 0.00 1.78 0.00 60 1017.5
20260503225904 29 0 0.0 0.0 0.00 1.78 0.00 60 1017.4
20260503225803 29 0 0.0 0.0 0.00 1.78 0.00 60 1017.4
20260503225704 29 0 0.0 0.0 0.00 1.78 0.00 60 1017.3
20260503225603 29 0 0.0 0.0 0.00 1.78 0.00 60 1017.2
20260503225503 29 0 0.0 0.0 0.00 1.78 0.00 60 1017.2
20260503225404 29 0 0.0 0.0 0.00 1.78 0.00 60 1017.1
20260503225304 29 0 0.0 0.0 0.00 1.78 0.00 60 1017.3
20260503225203 29 0 0.0 0.0 0.00 1.78 0.00 60 1017.2
20260503225103 29 0 0.0 0.0 0.00 1.78 0.00 60 1017.4
20260503225003 29 0 0.0 0.0 0.00 1.78 0.00 60 1017.2
20260503224924 29 0 0.0 0.0 0.00 1.78 0.00 60 1017.1
20260503224803 29 0 0.0 0.0 0.00 1.78 0.00 60 1017.2
20260503224705 29 0 0.0 0.0 0.00 1.78 0.00 60 1017.1
20260503224603 29 0 0.0 0.0 0.00 1.78 0.00 60 1017.3
20260503224503 29 0 0.0 0.0 0.00 1.78 0.00 60 1017.2
20260503224425 29 0 0.0 0.0 0.00 1.78 0.00 60 1017.2
20260503224303 29 0 0.0 0.0 0.00 1.78 0.00 60 1017.2
20260503224203 29 0 0.0 0.0 0.00 1.78 0.00 60 1017.2
20260503224124 29 0 0.0 0.0 0.00 1.78 0.00 60 1017.1
20260503224024 29 0 0.0 0.0 0.00 1.78 0.00 60 1017.3
20260503223903 29 0 0.0 0.0 0.00 1.78 0.00 60 1017.1
20260503223803 29 0 0.0 0.0 0.00 1.78 0.00 60 1017.1
20260503223703 29 0 0.0 0.0 0.00 1.78 0.00 60 1017.1
20260503223603 29 0 0.0 0.0 0.00 1.78 0.00 60 1017.0
20260503223503 29 0 0.0 0.0 0.00 1.78 0.00 60 1017.0
20260503223403 29 0 0.0 0.0 0.00 1.78 0.00 60 1017.1
20260503223303 29 0 0.0 0.0 0.00 1.78 0.00 60 1017.1
20260503223203 29 0 0.0 0.0 0.00 1.78 0.00 60 1017.1
20260503223124 29 0 0.0 0.0 0.00 1.78 0.00 60 1017.1
20260503223003 29 0 0.0 0.0 0.00 1.78 0.00 60 1017.0
20260503222905 29 0 0.0 0.0 0.00 1.78 0.00 60 1017.0
20260503222803 29 0 0.0 0.0 0.00 1.78 0.00 60 1017.0
20260503222724 29 0 0.0 0.0 0.00 1.78 0.00 60 1017.0
20260503222603 29 0 0.0 0.0 0.00 1.78 0.00 60 1017.1
20260503222503 29 0 0.0 0.0 0.00 1.78 0.00 60 1017.1
20260503222403 29 0 0.0 0.0 0.00 1.78 0.00 60 1017.1
20260503222304 29 0 0.0 0.0 0.00 1.78 0.00 60 1016.9
20260503222204 29 0 0.0 0.0 0.00 1.78 0.00 60 1016.9
20260503222103 29 0 0.0 0.0 0.00 1.78 0.00 60 1017.1
20260503222003 29 0 0.0 0.0 0.00 1.78 0.00 60 1017.0
20260503221903 29 0 0.0 0.0 0.00 1.78 0.00 60 1017.1
20260503221824 29 0 0.0 0.0 0.00 1.78 0.00 60 1017.0
20260503221703 29 0 0.0 0.0 0.00 1.78 0.00 60 1017.1
20260503221603 29 0 0.0 0.0 0.00 1.78 0.00 60 1016.9
20260503221503 29 0 0.0 0.0 0.00 1.78 0.00 60 1017.0
20260503221425 29 0 0.0 0.0 0.00 1.78 0.00 60 1016.9
20260503221305 29 0 0.0 0.0 0.00 1.78 0.00 60 1016.7
20260503221203 29 0 0.0 0.0 0.00 1.78 0.00 60 1016.9
20260503221103 29 0 0.0 0.0 0.00 1.78 0.00 60 1017.0
20260503221003 29 0 0.0 0.0 0.00 1.78 0.00 60 1016.9
20260503220903 29 0 0.0 0.0 0.00 1.78 0.00 60 1017.0
20260503220803 29 0 0.0 0.0 0.00 1.78 0.00 60 1017.0
20260503220703 29 0 0.0 0.0 0.00 1.78 0.00 60 1017.0
20260503220604 29 0 0.0 0.0 0.00 1.78 0.00 60 1017.0
20260503220503 29 0 0.0 0.0 0.00 1.78 0.00 60 1016.9
20260503220403 29 0 0.0 0.0 0.00 1.78 0.00 60 1016.9
20260503220303 29 0 0.0 0.0 0.00 1.78 0.00 60 1016.7
20260503220203 29 0 0.0 0.0 0.00 1.78 0.00 60 1016.7
20260503220103 29 0 0.0 0.0 0.00 1.78 0.00 60 1016.9
20260503220003 29 0 0.0 0.0 0.00 1.78 0.00 60 1017.0
20260503215903 29 0 0.0 0.0 0.00 1.78 0.00 60 1016.7
20260503215824 29 0 0.0 0.0 0.00 1.78 0.00 60 1016.9
20260503215703 29 0 0.0 0.0 0.00 1.78 0.00 60 1016.7
20260503215603 29 0 0.0 0.0 0.00 1.78 0.00 60 1016.6
20260503215505 29 0 0.0 0.0 0.00 1.78 0.00 60 1016.6
20260503215403 29 0 0.0 0.0 0.00 1.78 0.00 60 1016.7
20260503215304 29 0 0.0 0.0 0.00 1.78 0.00 60 1016.9
20260503215224 29 275 0.0 3.2 0.00 1.78 0.00 60 1016.9
20260503215103 29 275 0.0 3.2 0.00 1.78 0.00 60 1016.9
20260503215003 29 275 1.6 3.2 0.00 1.78 0.00 60 1016.6
20260503214903 29 273 1.6 3.2 0.00 1.78 0.00 60 1016.7
20260503214824 29 271 1.6 3.2 0.00 1.78 0.00 60 1016.7
20260503214703 29 268 1.6 4.8 0.00 1.78 0.00 60 1017.0
20260503214603 29 267 1.6 4.8 0.00 1.78 0.00 60 1016.7
20260503214524 29 267 3.2 4.8 0.00 1.78 0.00 60 1016.9
20260503214403 29 267 3.2 4.8 0.00 1.78 0.00 60 1016.9
20260503214303 29 267 3.2 4.8 0.00 1.78 0.00 60 1016.9
20260503214203 29 267 3.2 4.8 0.00 1.78 0.00 60 1016.7
20260503214103 29 265 3.2 4.8 0.00 1.78 0.00 60 1016.7
20260503214003 29 264 1.6 4.8 0.00 1.78 0.00 60 1017.0
20260503213905 29 264 1.6 4.8 0.00 1.78 0.00 60 1016.9
20260503213803 29 264 1.6 4.8 0.00 1.78 0.00 60 1016.7
20260503213703 29 265 1.6 3.2 0.00 1.78 0.00 60 1016.9
20260503213603 29 267 1.6 3.2 0.00 1.78 0.00 60 1016.7
20260503213503 29 268 0.0 3.2 0.00 1.78 0.00 60 1016.7
20260503213403 29 267 0.0 1.6 0.00 1.78 0.00 60 1016.9
20260503213324 29 266 0.0 1.6 0.00 1.78 0.00 60 1016.9
20260503213203 29 265 0.0 1.6 0.00 1.78 0.00 60 1016.9
20260503213103 29 0 0.0 0.0 0.00 1.78 0.00 60 1016.9
20260503213003 29 0 0.0 0.0 0.00 1.78 0.00 60 1016.9
20260503212904 29 0 0.0 0.0 0.00 1.78 0.00 60 1016.6
20260503212803 29 0 0.0 0.0 0.00 1.78 0.00 60 1016.6
20260503212703 29 0 0.0 0.0 0.00 1.78 0.00 60 1016.5
20260503212603 29 0 0.0 0.0 0.00 1.78 0.00 60 1016.7
20260503212524 29 0 0.0 0.0 0.00 1.78 0.00 60 1016.6
20260503212403 29 0 0.0 0.0 0.00 1.78 0.00 60 1016.6
20260503212305 29 0 0.0 0.0 0.00 1.78 0.00 60 1016.6
20260503212225 29 0 0.0 0.0 0.00 1.78 0.00 60 1016.7
20260503212103 29 0 0.0 0.0 0.00 1.78 0.00 60 1016.7
20260503212003 29 0 0.0 0.0 0.00 1.78 0.00 60 1016.7
20260503211903 29 0 0.0 0.0 0.00 1.78 0.00 60 1016.9
20260503211803 29 240 0.0 1.6 0.00 1.78 0.00 60 1016.9
20260503211703 29 240 0.0 1.6 0.00 1.78 0.00 60 1016.9
20260503211603 29 240 0.0 1.6 0.00 1.78 0.00 60 1016.9
20260503211503 29 240 0.0 1.6 0.00 1.78 0.00 60 1016.7
20260503211403 29 237 0.0 1.6 0.00 1.78 0.00 60 1017.0
20260503211303 29 237 0.0 1.6 0.00 1.78 0.00 60 1017.1
20260503211203 29 237 0.0 1.6 0.00 1.78 0.00 60 1017.1
20260503211103 29 237 0.0 1.6 0.00 1.78 0.00 60 1016.9
20260503211003 29 232 0.0 1.6 0.00 1.78 0.00 60 1017.0
20260503210903 29 232 0.0 1.6 0.00 1.80 0.00 60 1017.0
20260503210824 29 232 0.0 1.6 0.00 1.80 0.00 60 1017.0
20260503210703 29 230 0.0 1.6 0.00 1.80 0.00 60 1016.9
20260503210604 29 224 0.0 1.6 0.00 1.80 0.00 60 1017.2
20260503210525 29 220 0.0 1.6 0.00 1.80 0.00 60 1017.0
20260503210403 29 221 0.0 1.6 0.00 1.83 0.00 60 1017.0
20260503210303 29 221 0.0 1.6 0.00 1.83 0.00 60 1017.0